Location: Champseau
(45.8333°N, 1.7667°E)
Time: 11:55:01
(UTC+00:00)

ITUPSAT 1 - Pass Details

Date: 28 November 2021
Orbit: 701 x 712 km, 98.6° (Epoch: 19 January)

Event Time Altitude Azimuth Distance (km) Brightness Sun altitude
Rises 06:09:52 0° 149° (SSE) 3,083 ? -10.3°
Reaches altitude 10° 06:12:10 10° 144° (SE) 2,171 ? -10.0°
Maximum altitude 06:16:45 50° 70° (ENE) 904 ? -9.2°
Drops below altitude 10° 06:21:23 10° 356° (N) 2,194 ? -8.5°
Sets 06:23:42 0° 351° (N) 3,120 ? -8.1°
